Hourly Data Report for December 27, 2012

BAGOTVILLE A
QUEBEC

48°20'00.000" N
71°00'00.000" W
159.10 m
7060400
71727
YBG

Download Data

Hourly Data (December 2012)
Hourly Data Report for December 27, 2012
TIME
LST
Temp Definition
°C
Dew Point Definition
°C
Rel Hum Definition
%
Precip. Amount Definition
mm

Wind Dir Definition
10's deg

Wind Spd Definition
km/h
Visibility Definition
km
Stn Press Definition
kPa
Hmdx Definition


Wind Chill Definition


Weather Definition


00:00 -18.8 -21.6 79   20 7 24.1 100.75   -24 Ice Crystals
01:00 -17.8 -21.2 75     0 24.1 100.67     Mainly Clear
02:00 -19.4 -22.3 78   25 4 24.1 100.64   -23 Mainly Clear
03:00 -19.4 -22.3 78     0 24.1 100.52     Mainly Clear
04:00 -19.2 -22.1 78   20 4 24.1 100.53   -23 Mostly Cloudy
05:00 -18.4 -21.2 79   19 7 24.1 100.45   -24 Mostly Cloudy
06:00 -17.5 -20.8 75   20 6 19.3 100.40   -22 Mostly Cloudy
07:00 -16.6 -19.7 77   18 6 19.3 100.40   -21 Cloudy
08:00 -15.1 -17.4 83   24 4 19.3 100.32   -18 Cloudy
09:00 -15.3 -17.6 83     0 12.9 100.19     Snow
10:00 -14.5 -16.2 87   30 4 12.9 100.16   -17 Snow
11:00 -14.3 -16.5 83   29 6 9.7 100.10   -18 Snow
12:00 -12.5 -14.5 85   27 4 6.4 100.03   -15 Snow
13:00 -12.2 -14.6 82   29 7 6.4 99.94   -17 Snow
14:00 -11.6 -13.9 83   29 7 9.7 99.91   -16 Snow
15:00 -11.1 -13.3 84   27 6 8.0 99.91   -15 Snow
16:00 -10.9 -12.6 87   30 6 1.6 99.83   -15 Snow
17:00 -10.5 -12.2 87     0 4.8 99.73     Snow
18:00 -9.8 -11.8 85   29 7 4.8 99.65   -14 Snow
19:00 -9.9 -11.5 88   29 11 2.8 99.66   -15 Snow
20:00 -9.4 -11.3 86   30 13 1.6 99.63   -15 Snow
21:00 -10.0 -12.0 85   27 9 2.4 99.53   -15 Snow
22:00 -9.8 -11.8 85   28 13 2.4 99.48   -16 Snow
23:00 -9.3 -11.2 86   29 11 4.8 99.45   -15 Snow

Notes on Data Quality.

Legend

  • E = Estimated
  • M = Missing
  • NA = Not Available*
  • [empty] = Indicates an unobserved value
Date modified: